DW7888 Weather Reports


time (UTC)temp
C
wind
direction
speed
KPH
gust
KPH
rain 1hr
cm
rain 24hr
cm
rain mn
cm
humidity
%
barometer
mb
20260510021003 18 171 0.0 4.8 0.00 0.00 0.00 72 1010.7
20260510020507 18 113 0.0 3.2 0.00 0.00 0.00 72 1010.7
20260510020024 19 155 0.0 0.0 0.00 0.00 0.00 72 1010.6
20260510015503 19 136 0.0 0.0 0.00 0.00 0.00 72 1010.5
20260510015007 19 130 0.0 0.0 0.00 0.00 0.00 72 1010.4
20260510014529 19 172 0.0 0.0 0.00 0.00 0.00 72 1010.4
20260510014004 19 151 0.0 0.0 0.00 0.00 0.00 72 1010.3
20260510013507 18 149 0.0 0.0 0.00 0.00 0.00 72 1010.2
20260510013025 18 148 0.0 0.0 0.00 0.00 0.00 72 1010.2
20260510012503 18 142 0.0 0.0 0.00 0.00 0.00 72 1010.2
20260510012009 18 154 0.0 0.0 0.00 0.00 0.00 73 1010.2
20260510011528 18 149 0.0 0.0 0.00 0.00 0.00 73 1010.1
20260510011006 18 149 0.0 0.0 0.00 0.00 0.00 73 1010.0
20260510010506 18 149 0.0 0.0 0.00 0.00 0.00 73 1009.9
20260510010025 18 150 0.0 0.0 0.00 0.00 0.00 73 1009.9
20260510005507 18 149 0.0 0.0 0.00 0.00 0.00 73 1009.9
20260510005006 18 149 0.0 0.0 0.00 0.00 0.00 72 1009.8
20260510004526 18 149 0.0 3.2 0.00 0.00 0.00 73 1009.7
20260510004010 18 153 0.0 3.2 0.00 0.00 0.00 72 1009.6
20260510003514 19 151 0.0 0.0 0.00 0.00 0.00 72 1009.6
20260510003034 19 151 0.0 1.6 0.00 0.00 0.00 71 1009.6
20260510002506 19 151 0.0 1.6 0.00 0.00 0.00 70 1009.6
20260510002010 20 151 0.0 1.6 0.00 0.00 0.00 70 1009.5
20260510001528 20 121 0.0 0.0 0.00 0.00 0.00 70 1009.3
20260510001007 20 116 0.0 1.6 0.00 0.00 0.00 70 1009.4
20260510000507 20 116 0.0 1.6 0.00 0.00 0.00 68 1009.3
20260510000030 21 82 0.0 0.0 0.00 0.00 0.00 68 1009.2
20260509235505 21 82 0.0 0.0 0.00 0.00 0.00 66 1009.2
20260509235012 21 82 0.0 0.0 0.00 0.00 0.00 66 1009.2
20260509234536 22 82 0.0 0.0 0.00 0.00 0.00 64 1009.1
20260509234007 22 82 0.0 0.0 0.00 0.00 0.00 63 1009.0
20260509233509 22 38 0.0 0.0 0.00 0.00 0.00 60 1009.0
20260509233039 22 38 0.0 0.0 0.00 0.00 0.00 57 1009.0
20260509232507 22 38 0.0 0.0 0.00 0.00 0.00 56 1009.1
20260509232007 22 38 0.0 0.0 0.00 0.00 0.00 55 1009.1
20260509231512 22 38 0.0 1.6 0.00 0.00 0.00 56 1009.1
20260509231008 23 38 0.0 1.6 0.00 0.00 0.00 56 1009.1
20260509230508 23 41 0.0 1.6 0.00 0.00 0.00 56 1009.1
20260509230012 23 117 0.0 0.0 0.00 0.00 0.00 56 1009.1
20260509225510 23 113 0.0 1.6 0.00 0.00 0.00 56 1009.0
20260509225009 23 113 0.0 3.2 0.00 0.00 0.00 56 1009.0
20260509224516 23 59 0.0 3.2 0.00 0.00 0.00 54 1008.8
20260509224008 23 160 0.0 3.2 0.00 0.00 0.00 55 1008.9
20260509223512 23 117 0.0 3.2 0.00 0.00 0.00 55 1008.8
20260509223016 23 105 0.0 3.2 0.00 0.00 0.00 54 1008.9
20260509222511 23 105 0.0 1.6 0.00 0.00 0.00 56 1008.8
20260509222011 23 113 0.0 1.6 0.00 0.00 0.00 55 1008.8
20260509221513 23 10 0.0 1.6 0.00 0.00 0.00 54 1008.9
20260509221010 23 355 0.0 1.6 0.00 0.00 0.00 54 1009.0
20260509220507 23 101 0.0 4.8 0.00 0.00 0.00 55 1009.0
20260509220020 23 144 0.0 4.8 0.00 0.00 0.00 54 1008.9
20260509215508 23 108 0.0 3.2 0.00 0.00 0.00 54 1008.8
20260509215012 23 107 0.0 3.2 0.00 0.00 0.00 57 1008.8
20260509214516 23 144 0.0 3.2 0.00 0.00 0.00 57 1008.7
20260509214007 23 82 0.0 3.2 0.00 0.00 0.00 55 1008.7
20260509213514 23 26 0.0 4.8 0.00 0.00 0.00 54 1008.7
20260509213016 23 165 1.6 4.8 0.00 0.00 0.00 54 1008.6
20260509212507 23 199 1.6 6.4 0.00 0.00 0.00 53 1008.7
20260509212013 23 178 0.0 6.4 0.00 0.00 0.00 53 1008.7
20260509211520 24 148 1.6 6.4 0.00 0.00 0.00 51 1008.6
20260509211010 25 180 1.6 8.0 0.00 0.00 0.00 52 1008.7
20260509210507 25 306 1.6 8.0 0.00 0.00 0.00 51 1008.7
20260509210024 25 104 1.6 4.8 0.00 0.00 0.00 51 1008.7
20260509205504 25 360 1.6 4.8 0.00 0.00 0.00 52 1008.7
20260509205003 25 324 1.6 9.7 0.00 0.00 0.00 53 1008.7
20260509204520 25 98 1.6 9.7 0.00 0.00 0.00 51 1008.5
20260509204004 25 173 1.6 11.3 0.00 0.00 0.00 53 1008.5
20260509203505 25 171 3.2 11.3 0.00 0.00 0.00 52 1008.4
20260509203032 25 186 1.6 12.9 0.00 0.00 0.00 53 1008.3
20260509202504 25 175 3.2 12.9 0.00 0.00 0.00 53 1008.4
20260509202006 25 136 3.2 11.3 0.00 0.00 0.00 51 1008.4
20260509201522 25 246 1.6 12.9 0.00 0.00 0.00 52 1008.6
20260509201005 25 134 6.4 12.9 0.00 0.00 0.00 51 1008.6
20260509200510 25 173 3.2 11.3 0.00 0.00 0.00 50 1008.6
20260509200024 25 253 0.0 11.3 0.00 0.00 0.00 53 1008.6
20260509195504 25 144 3.2 11.3 0.00 0.00 0.00 49 1008.7
20260509195010 25 96 0.0 14.5 0.00 0.00 0.00 54 1008.8
20260509194530 25 250 4.8 14.5 0.00 0.00 0.00 52 1008.9
20260509194003 24 164 1.6 17.7 0.00 0.00 0.00 51 1009.0
20260509193507 24 9 1.6 17.7 0.00 0.00 0.00 50 1009.0
20260509193025 23 352 0.0 9.7 0.00 0.00 0.00 54 1009.1
20260509192504 23 111 3.2 9.7 0.00 0.00 0.00 55 1009.2
20260509192007 22 188 1.6 8.0 0.00 0.00 0.00 55 1009.4
20260509191526 22 166 0.0 12.9 0.00 0.00 0.00 55 1009.5
20260509191009 23 164 1.6 12.9 0.00 0.00 0.00 53 1009.4
20260509190511 23 122 8.0 12.9 0.00 0.00 0.00 53 1009.4
20260509190026 23 112 1.6 12.9 0.00 0.00 0.00 54 1009.5
20260509185505 23 338 0.0 12.9 0.00 0.00 0.00 52 1009.6
20260509185008 24 150 0.0 4.8 0.00 0.00 0.00 52 1009.6
20260509184537 23 167 0.0 4.8 0.00 0.00 0.00 55 1009.8
20260509184009 23 52 0.0 11.3 0.00 0.00 0.00 52 1009.8
20260509183510 23 268 0.0 16.1 0.00 0.00 0.00 49 1009.8
20260509183032 24 222 3.2 16.1 0.00 0.00 0.00 51 1009.8
20260509182507 24 74 0.0 11.3 0.00 0.00 0.00 55 1009.9
20260509182009 23 175 4.8 11.3 0.00 0.00 0.00 52 1010.0
20260509181505 25 152 3.2 6.4 0.00 0.00 0.00 51 1010.1
20260509181011 24 84 1.6 11.3 0.00 0.00 0.00 54 1010.2
20260509180507 23 163 1.6 11.3 0.00 0.00 0.00 56 1010.4
20260509180015 22 123 1.6 12.9 0.00 0.00 0.00 55 1010.4
20260509175509 23 121 0.0 12.9 0.00 0.00 0.00 57 1010.4
20260509175008 23 153 6.4 12.9 0.00 0.00 0.00 51 1010.3
20260509174508 23 213 4.8 12.9 0.00 0.00 0.00 55 1010.6
20260509174007 22 21 1.6 11.3 0.00 0.00 0.00 56 1010.6
20260509173515 22 135 3.2 16.1 0.00 0.00 0.00 56 1010.5
20260509173014 23 117 4.8 16.1 0.00 0.00 0.00 53 1010.5
20260509172507 23 126 1.6 11.3 0.00 0.00 0.00 55 1010.5
20260509172008 23 156 4.8 11.3 0.00 0.00 0.00 55 1010.5
20260509171519 22 116 3.2 8.0 0.00 0.00 0.00 56 1010.6
20260509171011 23 171 1.6 9.7 0.00 0.00 0.00 53 1010.7
20260509170508 23 196 1.6 11.3 0.00 0.00 0.00 53 1010.7
20260509170008 23 90 1.6 11.3 0.00 0.00 0.00 54 1010.9
20260509165508 23 138 3.2 17.7 0.00 0.00 0.00 56 1011.1
20260509165009 22 246 3.2 17.7 0.00 0.00 0.00 57 1011.3
20260509164509 23 142 4.8 11.3 0.00 0.00 0.00 53 1011.2
20260509164009 22 134 3.2 9.7 0.00 0.00 0.00 61 1011.4
20260509163508 22 88 1.6 9.7 0.00 0.00 0.00 57 1011.6
20260509163014 22 144 3.2 16.1 0.00 0.00 0.00 57 1011.5
20260509162508 22 156 4.8 16.1 0.00 0.00 0.00 55 1011.4
20260509162008 22 168 3.2 9.7 0.00 0.00 0.00 56 1011.3
20260509161517 22 142 3.2 6.4 0.00 0.00 0.00 60 1011.4
20260509161014 22 307 1.6 6.4 0.00 0.00 0.00 60 1011.4
20260509160510 21 198 1.6 8.0 0.00 0.00 0.00 61 1011.5
20260509160014 21 159 3.2 11.3 0.00 0.00 0.00 58 1011.6
20260509155508 22 139 4.8 11.3 0.00 0.00 0.00 54 1011.6
20260509155010 22 138 1.6 9.7 0.00 0.00 0.00 58 1011.6
20260509154516 21 195 1.6 14.5 0.00 0.00 0.00 58 1011.7
20260509154011 21 133 4.8 14.5 0.00 0.00 0.00 58 1011.9
20260509153508 21 148 1.6 8.0 0.00 0.00 0.00 57 1012.1
20260509153020 21 328 1.6 14.5 0.00 0.00 0.00 58 1012.1
20260509152507 21 144 6.4 14.5 0.00 0.00 0.00 60 1011.9
20260509152010 21 161 1.6 11.3 0.00 0.00 0.00 60 1011.9
20260509151517 21 184 3.2 11.3 0.00 0.00 0.00 58 1012.0
20260509151008 21 167 3.2 11.3 0.00 0.00 0.00 59 1012.2
20260509150510 21 204 3.2 9.7 0.00 0.00 0.00 62 1012.2
20260509150016 20 83 3.2 9.7 0.00 0.00 0.00 65 1012.1
20260509145510 21 261 3.2 9.7 0.00 0.00 0.00 63 1012.3
20260509145015 20 118 3.2 16.1 0.00 0.00 0.00 62 1012.4
20260509144518 20 360 0.0 16.1 0.00 0.00 0.00 66 1012.4
20260509144007 20 192 4.8 16.1 0.00 0.00 0.00 63 1012.6
20260509143511 20 185 3.2 12.9 0.00 0.00 0.00 64 1012.7
20260509143016 20 120 1.6 11.3 0.00 0.00 0.00 66 1012.8
20260509142508 19 181 1.6 11.3 0.00 0.00 0.00 68 1013.0
20260509142009 19 138 1.6 11.3 0.00 0.00 0.00 67 1013.1
20260509141524 19 113 1.6 9.7 0.00 0.00 0.00 69 1013.0
20260509141013 19 150 1.6 9.7 0.00 0.00 0.00 66 1012.9
20260509140509 19 183 1.6 12.9 0.00 0.00 0.00 66 1013.0
20260509140021 18 265 3.2 12.9 0.00 0.00 0.00 68 1012.9
20260509135510 18 74 3.2 12.9 0.00 0.00 0.00 70 1012.8
20260509135013 18 109 1.6 11.3 0.00 0.00 0.00 72 1012.8
20260509134519 17 182 3.2 11.3 0.00 0.00 0.00 72 1012.9
20260509134009 17 183 1.6 8.0 0.00 0.00 0.00 73 1013.1
20260509133514 17 167 0.0 9.7 0.00 0.00 0.00 74 1013.1
20260509133022 17 204 1.6 8.0 0.00 0.00 0.00 74 1013.3
20260509132511 17 159 0.0 8.0 0.00 0.00 0.00 75 1013.4
20260509132011 17 140 0.0 8.0 0.00 0.00 0.00 75 1013.4
20260509131521 17 173 1.6 8.0 0.00 0.00 0.00 76 1013.5
20260509131012 16 107 0.0 6.4 0.00 0.00 0.00 77 1013.4
20260509130513 16 116 0.0 6.4 0.00 0.00 0.00 76 1013.3
20260509130023 16 194 1.6 11.3 0.00 0.00 0.00 78 1013.3
20260509125519 16 107 1.6 11.3 0.00 0.00 0.00 77 1013.2
20260509125009 16 149 0.0 11.3 0.00 0.00 0.00 79 1013.1
20260509124535 15 123 1.6 14.5 0.00 0.00 0.00 78 1013.1
20260509124009 15 201 3.2 14.5 0.00 0.00 0.00 79 1013.1
20260509123509 15 157 3.2 14.5 0.00 0.00 0.00 79 1013.1
20260509123023 15 121 1.6 9.7 0.00 0.00 0.00 80 1013.2
20260509122516 15 293 0.0 9.7 0.00 0.00 0.00 80 1013.2
20260509122014 15 189 1.6 9.7 0.00 0.00 0.00 80 1013.2
20260509121535 14 116 1.6 9.7 0.00 0.00 0.00 81 1013.3
20260509121011 14 229 1.6 12.9 0.00 0.00 0.00 82 1013.4
20260509120508 14 145 4.8 12.9 0.00 0.00 0.00 82 1013.6
20260509120007 13 246 1.6 11.3 0.00 0.00 0.00 82 1013.5
20260509115504 13 190 1.6 9.7 0.00 0.00 0.00 83 1013.3
20260509115002 13 160 3.2 12.9 0.00 0.00 0.00 83 1013.2
20260509114517 13 159 1.6 16.1 0.00 0.00 0.00 84 1013.2
20260509114006 13 168 1.6 16.1 0.00 0.00 0.00 84 1013.1
20260509113503 13 171 1.6 11.3 0.00 0.00 0.00 85 1013.0
20260509113005 12 146 3.2 11.3 0.00 0.00 0.00 85 1013.0
20260509112506 12 140 1.6 9.7 0.00 0.00 0.00 85 1013.1
20260509112004 12 236 1.6 12.9 0.00 0.00 0.00 86 1013.1
20260509111503 12 126 0.0 12.9 0.00 0.00 0.00 85 1013.0
20260509111007 12 188 4.8 12.9 0.00 0.00 0.00 86 1012.9
20260509110502 12 124 1.6 6.4 0.00 0.00 0.00 86 1013.0
20260509110006 12 165 1.6 6.4 0.00 0.00 0.00 86 1013.0
20260509105507 12 101 1.6 6.4 0.00 0.00 0.00 85 1013.0
20260509105005 12 147 1.6 8.0 0.00 0.00 0.00 85 1013.0
20260509104508 12 195 3.2 14.5 0.00 0.00 0.00 85 1013.0
20260509104006 12 136 3.2 14.5 0.00 0.00 0.00 85 1013.1
20260509103503 12 165 1.6 8.0 0.00 0.00 0.00 85 1013.0
20260509103008 11 180 1.6 8.0 0.00 0.00 0.00 85 1013.0
20260509102506 12 157 0.0 4.8 0.00 0.00 0.00 85 1013.0
20260509102005 12 177 0.0 4.8 0.00 0.00 0.00 85 1013.0
20260509101510 12 226 0.0 12.9 0.00 0.00 0.00 84 1012.9
20260509101007 12 183 3.2 12.9 0.00 0.00 0.00 85 1012.8
20260509100503 11 175 1.6 9.7 0.00 0.00 0.00 85 1012.8
20260509100008 11 211 0.0 12.9 0.00 0.00 0.00 84 1012.9
20260509095510 11 144 0.0 12.9 0.00 0.00 0.00 84 1012.9
20260509095005 11 117 0.0 4.8 0.00 0.00 0.00 84 1012.9
20260509094507 11 130 1.6 8.0 0.00 0.00 0.00 84 1012.9
20260509094009 12 82 3.2 9.7 0.00 0.00 0.00 83 1012.9
20260509093502 12 181 1.6 9.7 0.00 0.00 0.00 83 1012.9
20260509093010 12 134 1.6 4.8 0.00 0.00 0.00 83 1013.0
20260509092507 12 163 1.6 9.7 0.00 0.00 0.00 82 1013.0
20260509092002 12 168 0.0 9.7 0.00 0.00 0.00 82 1013.1
20260509091511 12 170 1.6 9.7 0.00 0.00 0.00 81 1013.0
20260509091012 12 110 1.6 9.7 0.00 0.00 0.00 81 1013.1
20260509090504 12 171 0.0 6.4 0.00 0.00 0.00 81 1013.1
20260509090031 12 215 0.0 6.4 0.00 0.00 0.00 80 1013.1
20260509085507 12 141 0.0 9.7 0.00 0.00 0.00 80 1013.0
20260509085003 12 189 1.6 9.7 0.00 0.00 0.00 79 1013.0
20260509084520 12 144 1.6 8.0 0.00 0.00 0.00 79 1012.9
20260509084010 12 150 1.6 8.0 0.00 0.00 0.00 79 1012.8
20260509083502 12 218 1.6 9.7 0.00 0.00 0.00 78 1012.9
20260509083032 12 196 1.6 9.7 0.00 0.00 0.00 78 1012.8
20260509082513 12 178 1.6 9.7 0.00 0.00 0.00 77 1012.8
20260509082009 12 197 1.6 9.7 0.00 0.00 0.00 77 1012.9
20260509081523 12 191 1.6 8.0 0.00 0.00 0.00 77 1012.7
20260509081016 12 136 1.6 8.0 0.00 0.00 0.00 76 1012.7
20260509080503 12 172 1.6 8.0 0.00 0.00 0.00 75 1012.8
20260509080016 12 171 0.0 9.7 0.00 0.00 0.00 74 1012.9
20260509075510 13 102 1.6 9.7 0.00 0.00 0.00 74 1013.0
20260509075006 13 180 0.0 3.2 0.00 0.00 0.00 73 1013.0
20260509074529 13 144 0.0 3.2 0.00 0.00 0.00 73 1013.1
20260509074006 13 159 0.0 3.2 0.00 0.00 0.00 72 1013.1
20260509073506 13 35 0.0 3.2 0.00 0.00 0.00 72 1013.1
20260509073019 13 200 0.0 4.8 0.00 0.00 0.00 72 1013.2
20260509072514 13 326 0.0 6.4 0.00 0.00 0.00 72 1013.1
20260509072003 13 173 1.6 12.9 0.00 0.00 0.00 71 1013.1
20260509071522 13 196 3.2 12.9 0.00 0.00 0.00 72 1013.1
20260509071004 13 149 3.2 11.3 0.00 0.00 0.00 71 1013.2
20260509070506 13 206 3.2 11.3 0.00 0.00 0.00 71 1013.2
20260509070018 13 107 3.2 11.3 0.00 0.00 0.00 71 1013.3
20260509065504 13 173 1.6 11.3 0.00 0.00 0.00 71 1013.4
20260509065006 13 167 1.6 11.3 0.00 0.00 0.00 71 1013.5
20260509064520 13 109 3.2 11.3 0.00 0.00 0.00 71 1013.6
20260509064005 13 221 1.6 8.0 0.00 0.00 0.00 71 1013.7
20260509063506 13 151 3.2 9.7 0.00 0.00 0.00 71 1013.8
20260509063019 13 148 1.6 11.3 0.00 0.00 0.00 71 1013.9
20260509062503 13 132 3.2 11.3 0.00 0.00 0.00 70 1014.0
20260509062008 13 112 1.6 6.4 0.00 0.00 0.00 69 1014.1
20260509061522 13 155 1.6 8.0 0.00 0.00 0.00 69 1014.2
20260509061003 13 154 1.6 8.0 0.00 0.00 0.00 68 1014.2
20260509060507 13 149 3.2 11.3 0.00 0.00 0.00 67 1014.3
20260509060022 13 156 0.0 11.3 0.00 0.00 0.00 67 1014.3
20260509055503 13 176 3.2 11.3 0.00 0.00 0.00 67 1014.2
20260509055004 13 162 3.2 9.7 0.00 0.00 0.00 67 1014.2
20260509054524 13 163 1.6 9.7 0.00 0.00 0.00 66 1014.2
20260509054007 13 132 1.6 12.9 0.00 0.00 0.00 66 1014.2
20260509053507 13 161 3.2 12.9 0.00 0.00 0.00 65 1014.3
20260509053035 13 185 1.6 9.7 0.00 0.00 0.00 65 1014.2
20260509052506 14 115 3.2 9.7 0.00 0.00 0.00 64 1014.1
20260509052007 14 117 3.2 9.7 0.00 0.00 0.00 63 1014.0
20260509051524 14 157 1.6 9.7 0.00 0.00 0.00 63 1013.9
20260509051009 14 169 0.0 11.3 0.00 0.00 0.00 62 1013.8
20260509050511 14 160 3.2 11.3 0.00 0.00 0.00 62 1013.8
20260509050045 14 150 1.6 8.0 0.00 0.00 0.00 62 1013.8
20260509045503 15 165 1.6 11.3 0.00 0.00 0.00 61 1013.8
20260509045009 15 162 1.6 11.3 0.00 0.00 0.00 61 1013.8
20260509044524 15 158 3.2 11.3 0.00 0.00 0.00 61 1013.7
20260509044011 15 155 3.2 12.9 0.00 0.00 0.00 61 1013.7
20260509043510 15 167 1.6 12.9 0.00 0.00 0.00 61 1013.8
20260509043035 15 165 1.6 9.7 0.00 0.00 0.00 60 1013.7
20260509042509 15 127 1.6 6.4 0.00 0.00 0.00 60 1013.7
20260509042010 15 149 1.6 12.9 0.00 0.00 0.00 60 1013.8
20260509041528 15 187 3.2 12.9 0.00 0.00 0.00 59 1013.9
20260509041009 15 126 1.6 8.0 0.00 0.00 0.00 59 1013.9
20260509040510 15 193 0.0 8.0 0.00 0.00 0.00 60 1013.9
20260509040025 15 190 3.2 9.7 0.00 0.00 0.00 58 1013.9
20260509035505 15 136 3.2 9.7 0.00 0.00 0.00 58 1013.9
20260509035009 15 153 1.6 11.3 0.00 0.00 0.00 58 1014.0
20260509034528 15 153 1.6 11.3 0.00 0.00 0.00 57 1014.0
20260509034005 15 155 3.2 14.5 0.00 0.00 0.00 57 1014.1
20260509033514 15 205 3.2 14.5 0.00 0.00 0.00 56 1014.1
20260509033036 15 126 3.2 14.5 0.00 0.00 0.00 56 1014.3
20260509032507 15 182 4.8 14.5 0.00 0.00 0.00 56 1014.4
20260509032009 15 156 1.6 8.0 0.00 0.00 0.00 56 1014.4
20260509031531 15 148 1.6 6.4 0.00 0.00 0.00 56 1014.3
20260509031007 15 165 1.6 11.3 0.00 0.00 0.00 55 1014.4
20260509030514 15 197 1.6 11.3 0.00 0.00 0.00 55 1014.2
20260509030017 16 156 1.6 8.0 0.00 0.00 0.00 54 1014.2
20260509025507 16 195 1.6 8.0 0.00 0.00 0.00 54 1014.2
20260509025002 16 115 3.2 9.7 0.00 0.00 0.00 54 1014.3
20260509024509 16 150 1.6 9.7 0.00 0.00 0.00 53 1014.4
20260509024011 16 153 1.6 9.7 0.00 0.00 0.00 54 1014.3
20260509023503 15 157 1.6 6.4 0.00 0.00 0.00 54 1014.4
20260509023012 16 166 1.6 9.7 0.00 0.00 0.00 54 1014.3
20260509022507 16 104 1.6 9.7 0.00 0.00 0.00 54 1014.3
20260509022002 16 150 3.2 9.7 0.00 0.00 0.00 53 1014.2
20260509021512 16 155 1.6 8.0 0.00 0.00 0.00 53 1014.3